sat.trackr.live / text

‹ back to catalog

GLOBALSTAR M081

NORAD 37743 · 2011-033E

PAYLOAD ACTIVE UNKNOWN

§ Identity

Operator
Country
GLOB
Launch date
2011-07-13
Launch site
TYMSC
Launch vehicle
Mass (kg)
RCS (m²)
4.86

Purposes: comms

External: N2YO · Heavens-Above · Gunter

§ Orbital elements

Epoch: 2026-09-12T13:52:57.291168Z

Period
114.08 min
Inclination
51.9956°
Eccentricity
0.0000310
Mean motion
12.62266236 rev/d
Perigee alt
1,413.4 km
Apogee alt
1,413.8 km
Semi-major
7,791.7 km
B*
1.2359e-4
RAAN
289.5657°
Arg perigee
120.2039°
Mean anomaly
44.4057°
Rev number
70,097

§ Raw data

GLOBALSTAR M0811 37743U 11033E   26255.57844087 -.00000082  00000+0  12359-3 0  99982 37743  51.9956 289.5657 0000310 120.2039  44.4057 12.62266236700977

JSON: /api/v1/satellites/37743 · /tle

For live sub-satellite position, see the globe view (requires WebGL).

§ Visibility from observer

Set your observer location to see the next 7 days of passes ≥ 10°. The values pass through the URL so the page stays shareable.

No JS? Fill the form by hand. The geolocation button needs JavaScript.